Flag for Australia Weather past 2 weeks in Perth, Western Australia, Australia

Now
55 °F

Partly cloudy.


Feels Like: 54 °F
Forecast: 48 / 60 °F
Wind: 6 mph from Southwest

Location: Belmont Perth Airport

Current Time: Jul 31, 2014 at 1:28:50 AM

Latest Report: Jul 31, 2014 at 1:00 AM


Visibility: N/A

Pressure: 30.18 "Hg

Humidity: 100%

Dew point: 55 °F

Location of PerthLocation

Historic Weather in Perth — Graph

°F

Perth temperature yesterday

Maximum temperature yesterday: 66 °F (at 3:30 PM)
Minimum temperature yesterday: 54 °F (at 10:30 PM)
Average temperature yesterday: 61 °F

Past Weeks' High & Low Weather Summary

 TemperatureHumidityPressure
High68 °F (Jul 18, 2:30 PM)100% (Jul 16, 1:00 AM)30.42 "Hg (Jul 16, 1:00 AM)
Low37 °F (Jul 17, 3:30 AM)43% (Jul 18, 1:00 PM)29.83 "Hg (Jul 20, 3:00 AM)
Average55 °F80%30.12 "Hg
* Reported Midnight between Jul 15 and Jul 16 — Midnight between Jul 30 and Jul 31, Perth, Weather by CustomWeather, © 2014

Note: Actual official high and low records may vary slightly from our data, if they occured in-between our weather recording intervals... More about our weather records

Advertising

Perth weather history for previous 24 hours

 ConditionsComfort  
Time TempWeatherWind HumidityBarometerVisibility
12:00 AM
Jul 31
57 °FSprinkles. Partly cloudy.10 mph94%30.18 "Hg6 mi
11:00 PM
Jul 30
55 °FSprinkles. Partly cloudy.1 mph94%30.18 "Hg6 mi
10:30 PM54 °FPassing clouds.1 mph100%30.18 "HgN/A
10:00 PM55 °FPassing clouds.2 mph100%30.18 "HgN/A
9:30 PM57 °FPartly cloudy.5 mph94%30.18 "HgN/A
9:00 PM57 °FSprinkles. Partly cloudy.6 mph100%30.18 "Hg6 mi
8:30 PM57 °FPartly cloudy.8 mph94%30.18 "HgN/A
8:00 PM57 °FDrizzle. Mostly cloudy.9 mph100%30.18 "Hg3 mi
7:30 PM59 °FSprinkles. Mostly cloudy.14 mph82%30.18 "Hg6 mi
7:00 PM63 °FPassing clouds.10 mph59%30.15 "HgN/A
6:30 PM63 °FPassing clouds.7 mph59%30.15 "HgN/A
6:00 PM63 °FPassing clouds.8 mph59%30.15 "HgN/A
5:30 PM63 °FPassing clouds.10 mph64%30.15 "HgN/A
5:00 PM63 °FPassing clouds.13 mph59%30.15 "HgN/A
4:30 PM64 °FPartly sunny.9 mph56%30.15 "HgN/A
4:00 PM64 °FPartly sunny.13 mph52%30.15 "HgN/A
3:30 PM66 °FPartly sunny.12 mph52%30.15 "HgN/A
3:00 PM64 °FBroken clouds.14 mph56%30.15 "HgN/A
2:30 PM64 °FMostly cloudy.15 mph60%30.15 "HgN/A
2:00 PM64 °FMore clouds than sun.10 mph60%30.15 "HgN/A
1:30 PM64 °FOvercast.13 mph56%30.15 "HgN/A
1:00 PM64 °FOvercast.13 mph56%30.15 "HgN/A
12:30 PM64 °FOvercast.13 mph56%30.15 "HgN/A
12:00 PM64 °FOvercast.13 mph52%30.15 "HgN/A
11:30 AM64 °FMore clouds than sun.13 mph52%30.15 "HgN/A
11:00 AM63 °FMore clouds than sun.12 mph59%30.18 "HgN/A
10:30 AM63 °FMore clouds than sun.8 mph64%30.18 "HgN/A
10:00 AM63 °FOvercast.8 mph59%30.18 "HgN/A
9:30 AM63 °FOvercast.8 mph59%30.18 "HgN/A
9:00 AM63 °FOvercast.7 mph59%30.18 "HgN/A
8:30 AM61 °FOvercast.8 mph68%30.18 "HgN/A
8:00 AM61 °FOvercast.8 mph63%30.18 "HgN/A
7:30 AM61 °FPartly sunny.8 mph59%30.15 "HgN/A
7:00 AM61 °FOvercast.10 mph59%30.15 "HgN/A
6:30 AM61 °FOvercast.9 mph63%30.15 "HgN/A
6:00 AM61 °FOvercast.7 mph63%30.15 "HgN/A
5:30 AM61 °FOvercast.9 mph59%30.15 "HgN/A
5:00 AM61 °FPassing clouds.9 mph59%30.15 "HgN/A
4:30 AM61 °FPassing clouds.12 mph59%30.15 "HgN/A
4:00 AM59 °FPassing clouds.7 mph72%30.15 "HgN/A
3:30 AM59 °FPassing clouds.5 mph72%30.15 "HgN/A
3:00 AM61 °FPassing clouds.7 mph63%30.15 "HgN/A
2:30 AM61 °FPassing clouds.7 mph68%30.18 "HgN/A
2:00 AM59 °FPassing clouds.7 mph72%30.18 "HgN/A
1:30 AM61 °FPassing clouds.6 mph68%30.18 "HgN/A
1:00 AM61 °FPassing clouds.6 mph68%30.18 "HgN/A
Weather by CustomWeather, © 2014

See weather overviewHow to use our weather pages